Terminal Aerodrome Forecast
Issued by NWS

Home | Current Version | Previous Version | Text Only | Print | Product List | Glossary Off
Versions: 1 2 3 4 5 6 7 8 9 10 11 12 13 14 15 16 17 18 19 20 21 22 23 24 25 26 27 28 29 30 31 32

000
FTUS43 KLOT 240900 AAA
TAFGYY
TAF AMD
KGYY 240901Z 2409/2506 21003KT P6SM VCSH OVC025
      TEMPO 2410/2413 3SM BR SCT020
     FM241400 24005KT P6SM SCT010 OVC020
     FM241800 24007KT P6SM SCT025 BKN250
     FM250000 19005KT P6SM BKN080=

USA.gov is the U.S. government's official web portal to all federal, state and local government web resources and services.